Weather History for Anchorage Merrill, AK

Change the Weather History Date:

Friday, December 2, 2011

  Actual Average Record
Temperature  
Mean Temperature 30 °F -  
Max Temperature 37 °F 22 °F 39 °F (2007)
Min Temperature 24 °F 11 °F -14 °F (2003)
Degree Days  
Heating Degree Days 34    
Moisture  
Dew Point 29 °F    
Average Humidity 87    
Maximum Humidity 93    
Minimum Humidity 69    
Precipitation  
Precipitation 0.07 in - - ()
Sea Level Pressure  
Sea Level Pressure 30.03 in    
Wind  
Wind Speed 2 mph (SW)    
Max Wind Speed 10 mph    
Max Gust Speed 16 mph    
Visibility 8 miles    
Events Rain , Snow    
Averages and records for this station are not official NWS values.
T = Trace of Precipitation, MM = Missing Value Source: NWS Daily Summary

Daily Weather History Graph

Daily Weather History Graph

Search for Another Location

Airport:

Trip Planner

Search our weather history database for the weather conditions in past years. The results will help you decide how hot, cold, wet, or windy it might be!

Date:

Astronomy

Dec. 02, 2011 Rise Set
Actual Time 9:47 AM AKST 3:50 PM AKST
Civil Twilight 8:48 AM AKST 4:48 PM AKST
Nautical Twilight 7:51 AM AKST 5:46 PM AKST
Astronomical Twilight 6:58 AM AKST 6:38 PM AKST
Moon 1:20 PM AKST (12/2) 12:30 AM AKST (12/2)
Length of Visible Light 7h 59m
Length of Day
6h 02m
First Quarter, 54% of the Moon is Illuminated
Dec 2
First Quarter
Dec 10
Full
Dec 17
Last Quarter
Dec 24
New
Dec 31
First Quarter

Hourly Weather History & Observations

Time (AKST) Temp. Windchill Dew Point Humidity Pressure Visibility Wind Dir Wind Speed Gust Speed Precip Events Conditions
12:53 AM 30.9 °F - 26.1 °F 82% 29.89 in 10.0 mi Calm Calm - N/A   Mostly Cloudy
1:53 AM 30.9 °F - 26.1 °F 82% 29.87 in 10.0 mi Calm Calm - N/A   Mostly Cloudy
3:53 AM 30.9 °F 27.5 °F 28.0 °F 89% 29.89 in 2.5 mi East 3.5 mph - 0.00 in Snow Light Snow
4:53 AM 32.0 °F - 28.9 °F 88% 29.86 in 6.0 mi Calm Calm - 0.02 in Snow Light Snow
5:53 AM 30.9 °F - 28.9 °F 92% 29.87 in 10.0 mi Calm Calm - 0.00 in   Overcast
6:40 AM 32.0 °F - 30.2 °F 93% 29.86 in 6.0 mi Calm Calm - 0.00 in Rain Light Freezing Rain
6:53 AM 32.0 °F - 30.0 °F 92% 29.87 in 7.0 mi Calm Calm - 0.00 in Rain Light Freezing Rain
6:56 AM 32.0 °F - 30.2 °F 93% 29.87 in 2.0 mi Calm Calm - 0.00 in Rain Light Freezing Rain
7:03 AM 33.8 °F - 30.2 °F 87% 29.87 in 3.0 mi Calm Calm - 0.00 in Rain Light Freezing Rain
7:53 AM 37.0 °F 30.4 °F 33.1 °F 86% 29.89 in 3.0 mi South 9.2 mph 16.1 mph 0.02 in Rain Light Freezing Rain
8:53 AM 36.0 °F 28.5 °F 32.0 °F 86% 29.94 in 7.0 mi South 10.4 mph - 0.01 in Rain Light Freezing Rain
9:53 AM 35.1 °F 30.1 °F 32.0 °F 89% 29.98 in 5.0 mi WSW 5.8 mph - 0.00 in Rain Light Freezing Rain
10:09 AM 33.8 °F 28.6 °F 30.2 °F 87% 29.98 in 6.0 mi West 5.8 mph - 0.00 in Rain Light Freezing Rain
10:50 AM 33.8 °F 29.6 °F 32.0 °F 93% 30.00 in 5.0 mi WSW 4.6 mph - 0.02 in Rain Light Freezing Rain
10:53 AM 34.0 °F 29.8 °F 32.0 °F 92% 30.01 in 6.0 mi SW 4.6 mph - 0.02 in Rain Light Freezing Rain
11:09 AM 33.8 °F 29.6 °F 32.0 °F 93% 30.01 in 2.0 mi WSW 4.6 mph - 0.00 in Rain Light Freezing Rain
11:53 AM 35.1 °F - 32.0 °F 89% 30.05 in 4.0 mi Calm Calm - 0.00 in   Overcast
12:00 PM 35.6 °F 32.8 °F 32.0 °F 87% 30.04 in 10.0 mi South 3.5 mph - N/A   Overcast
12:53 PM 36.0 °F - 32.0 °F 86% 30.07 in 10.0 mi Calm Calm - N/A   Overcast
1:53 PM 35.1 °F - 32.0 °F 89% 30.09 in 10.0 mi Calm Calm - N/A   Overcast
2:53 PM 37.0 °F 31.0 °F 30.9 °F 79% 30.12 in 10.0 mi SSW 8.1 mph - N/A   Overcast
3:13 PM 35.6 °F 30.7 °F 30.2 °F 81% 30.11 in 10.0 mi South 5.8 mph - N/A   Scattered Clouds
3:53 PM 36.0 °F - 30.0 °F 79% 30.14 in 10.0 mi Calm Calm - N/A   Scattered Clouds
4:53 PM 32.0 °F - 28.0 °F 85% 30.16 in 10.0 mi Calm Calm - N/A   Scattered Clouds
5:53 PM 30.9 °F 27.5 °F 28.0 °F 89% 30.19 in 10.0 mi North 3.5 mph - N/A   Scattered Clouds
6:53 PM 30.9 °F - 28.0 °F 89% 30.19 in 10.0 mi Calm Calm - N/A   Clear
7:53 PM 25.0 °F - 23.0 °F 92% 30.22 in 10.0 mi Calm Calm - N/A   Clear
8:53 PM 26.1 °F - 21.0 °F 81% 30.23 in 10.0 mi Calm Calm - N/A   Clear
9:53 PM 28.0 °F 22.8 °F 19.0 °F 69% 30.23 in 10.0 mi NW 4.6 mph - N/A   Scattered Clouds
10:53 PM 24.1 °F - 19.9 °F 84% 30.25 in 10.0 mi Calm Calm - N/A   Scattered Clouds
11:53 PM 28.0 °F 24.2 °F 25.0 °F 88% 30.26 in 10.0 mi North 3.5 mph - N/A   Scattered Clouds